EW6202 Weather Reports


time (UTC)temp
C
wind
direction
speed
KPH
gust
KPH
rain 1hr
cm
rain 24hr
cm
rain mn
cm
humidity
%
barometer
mb
20260503053033 25 157 3.2 14.5 0.00 0.00 0.00 83 1015.2
20260503051531 25 125 8.0 16.1 0.00 0.00 0.00 83 1015.2
20260503050029 25 137 6.4 16.1 0.00 0.00 0.00 83 1015.2
20260503044535 25 127 8.0 14.5 0.00 0.00 0.00 83 1015.3
20260503043025 25 139 1.6 9.7 0.00 0.00 0.00 82 1015.4
20260503041524 25 153 1.6 8.0 0.00 0.00 0.00 82 1015.6
20260503040027 25 131 1.6 11.3 0.00 0.00 0.00 81 1015.5
20260503034520 26 117 4.8 14.5 0.00 0.00 0.00 80 1015.4
20260503033019 26 121 8.0 19.3 0.00 0.00 0.00 80 1015.3
20260503031516 26 146 9.7 20.9 0.00 0.00 0.00 79 1015.2
20260503030015 26 141 8.0 19.3 0.00 0.00 0.00 80 1015.1
20260503024514 26 157 3.2 14.5 0.00 0.00 0.00 80 1015.0
20260503023012 26 101 3.2 12.9 0.00 0.00 0.00 81 1014.9
20260503021511 26 140 8.0 17.7 0.00 0.00 0.00 80 1014.6
20260503020011 27 144 6.4 19.3 0.00 0.00 0.00 80 1014.4
20260503014510 27 182 6.4 16.1 0.00 0.00 0.00 81 1014.2
20260503013110 27 155 3.2 14.5 0.00 0.00 0.00 80 1013.9
20260503011508 27 110 11.3 17.7 0.00 0.00 0.00 81 1013.5
20260503010011 27 123 8.0 17.7 0.00 0.00 0.00 81 1013.4
20260503004508 27 117 6.4 17.7 0.00 0.00 0.00 80 1013.3
20260503003007 28 154 11.3 22.5 0.00 0.00 0.00 79 1013.0
20260503001512 28 158 14.5 22.5 0.00 0.00 0.00 79 1012.8
20260503000007 28 93 6.4 22.5 0.00 0.00 0.00 78 1012.4
20260502234510 29 132 11.3 25.7 0.00 0.00 0.00 77 1012.1
20260502233014 29 125 6.4 17.7 0.00 0.00 0.00 76 1011.9
20260502231508 30 134 11.3 20.9 0.00 0.00 0.00 74 1011.7
20260502230004 30 126 9.7 17.7 0.00 0.00 0.00 73 1011.5
20260502224503 30 105 9.7 19.3 0.00 0.00 0.00 72 1011.3
20260502223003 31 175 6.4 20.9 0.00 0.00 0.00 71 1011.2
20260502221502 31 135 9.7 22.5 0.00 0.00 0.00 70 1010.9
20260502220002 31 126 11.3 20.9 0.00 0.00 0.00 68 1010.9
20260502214633 32 116 11.3 24.1 0.00 0.00 0.00 66 1010.7
20260502213101 32 157 11.3 20.9 0.00 0.00 0.00 64 1010.6
20260502211606 32 130 11.3 24.1 0.00 0.00 0.00 64 1010.4
20260502210058 33 136 9.7 22.5 0.00 0.00 0.00 64 1010.4
20260502204558 33 151 6.4 27.4 0.00 0.00 0.00 63 1010.4
20260502203107 33 130 11.3 25.7 0.00 0.00 0.00 61 1010.4
20260502201606 33 88 12.9 22.5 0.00 0.00 0.00 61 1010.5
20260502200055 33 176 12.9 25.7 0.00 0.00 0.00 61 1010.8
20260502194559 33 148 12.9 29.0 0.00 0.00 0.00 60 1010.9
20260502193053 33 67 9.7 24.1 0.00 0.00 0.00 61 1010.8
20260502191551 33 158 11.3 24.1 0.00 0.00 0.00 62 1011.0
20260502190048 33 76 11.3 27.4 0.00 0.00 0.00 63 1011.2
20260502184546 32 145 14.5 32.2 0.00 0.00 0.00 62 1011.5
20260502183044 32 109 16.1 29.0 0.00 0.00 0.00 63 1011.8
20260502181540 32 128 17.7 27.4 0.00 0.00 0.00 63 1012.0
20260502163030 31 76 12.9 25.7 0.00 0.00 0.00 64 1013.7
20260502161523 31 148 12.9 29.0 0.00 0.00 0.00 65 1013.8
20260502151508 30 48 11.3 30.6 0.00 0.00 0.00 70 1014.3
20260502123029 26 117 9.7 20.9 0.00 0.00 0.00 85 1014.5
20260502121520 26 166 8.0 19.3 0.00 0.00 0.00 87 1014.6
20260502114516 25 140 4.8 20.9 0.00 0.00 0.00 90 1014.2
20260502113009 24 154 11.3 19.3 0.00 0.00 0.00 91 1014.0
20260502111504 23 103 11.3 24.1 0.00 0.00 0.00 93 1013.9
20260502110003 23 134 6.4 17.7 0.00 0.00 0.00 94 1013.4
20260502104556 23 128 6.4 14.5 0.00 0.00 0.00 96 1013.4
20260502103055 22 126 6.4 14.5 0.00 0.00 0.00 96 1013.2
20260502101613 22 112 4.8 12.9 0.00 0.00 0.00 96 1013.1
20260502100108 22 113 3.2 9.7 0.00 0.00 0.00 96 1013.0
20260502070040 23 92 3.2 11.3 0.00 0.00 0.00 94 1012.5
20260502064558 23 107 3.2 11.3 0.00 0.00 0.00 94 1012.5
20260502063035 23 89 3.2 11.3 0.00 0.00 0.00 94 1012.4
20260502061535 23 137 1.6 12.9 0.00 0.00 0.00 94 1012.4
20260502060043 23 141 3.2 11.3 0.00 0.00 0.00 94 1012.5
20260502054531 23 111 1.6 9.7 0.00 0.00 0.00 94 1012.6